Regional Weather Roundup
Issued by NWS Raleigh/Durham, NC

Home | Current Version | Previous Version | Text Only | Print | Product List | Glossary On
Versions: 1 2 3 4 5 6 7 8 9 10 11 12 13 14 15 16 17 18 19 20 21 22 23 24 25 26 27 28
000
ASUS42 KRAH 190410
RWRRAH
NORTH CAROLINA WEATHER ROUNDUP
NATIONAL WEATHER SERVICE RALEIGH NC
1200 AM EDT SAT AUG 19 2017

NOTE: "FAIR" INDICATES FEW OR NO CLOUDS BELOW 12,000 FEET WITH NO
SIGNIFICANT WEATHER AND/OR OBSTRUCTIONS TO VISIBILITY.

NCZ001-053-055-056-065-067-190500-
WESTERN NORTH CAROLINA

CITY           SKY/WX    TMP DP  RH WIND       PRES   REMARKS
ASHEVILLE      FAIR      72  32  23 N7        30.04S
JEFFERSON      FAIR      69  64  84 NW6       30.08S
MORGANTON      FAIR      69  69 100 CALM      30.01R
HICKORY        CLOUDY    76  74  93 CALM      29.96S
RUTHERFORDTON  FAIR      74  74 100 CALM      29.97R
MOUNT AIRY     FAIR      73  68  84 CALM      29.99R
BOONE          FAIR      69  63  81 W7        30.09S
$$

NCZ021-022-025-041-071-084-088-190500-
CENTRAL NORTH CAROLINA

CITY           SKY/WX    TMP DP  RH WIND       PRES   REMARKS
CHARLOTTE      FAIR      78  73  84 CALM      29.94S
GREENSBORO     MOCLDY    77  73  87 NW6       29.94R
WINSTON-SALEM  CLOUDY    78  71  79 NW5       29.96R
RALEIGH-DURHAM MOCLDY    82  74  76 CALM      29.93R
FORT BRAGG     MOCLDY    84  74  70 W6        29.91R
FAYETTEVILLE   FAIR      83  76  79 SW7       29.91R
BURLINGTON     FAIR      76  75  97 CALM      29.92S
LAURINBURG     FAIR      80  77  90 S5        29.92R
$$

NCZ011-015-027-028-043-044-047-080-103-190500-
NORTHEASTERN NORTH CAROLINA

CITY           SKY/WX    TMP DP  RH WIND       PRES   REMARKS
ROCKY MT-WILSO FAIR      82  77  84 SW7       29.90R
GREENVILLE     FAIR      82  79  89 SW8       29.92S
WASHINGTON     FAIR      82  77  85 S6        29.91S
ELIZABETH CITY FAIR      82  80  94 S9        29.90S
MANTEO         FAIR      82  79  90 SW13      29.92S
CAPE HATTERAS  FAIR      84  82  94 SW12      29.94F HX 100
$$

NCZ078-087-090-091-093-098-101-190500-
SOUTHEASTERN NORTH CAROLINA

CITY           SKY/WX    TMP DP  RH WIND       PRES   REMARKS
LUMBERTON      FAIR      81  78  91 S7        29.91S
GOLDSBORO      CLEAR     82  82 100 S6        29.90R HX  97
KINSTON        FAIR      82  76  82 S9        29.91F
KENANSVILLE    FAIR      81  77  89 CALM      29.91F
NEW BERN       FAIR      80  79  96 S6        29.93F
CHERRY POINT   FAIR      83  79  88 SW10      29.94S
BEAUFORT       CLOUDY    83  82  97 SW17      29.94S HX  98
JACKSONVILLE   FAIR      81  79  94 SW7       29.92F
WILMINGTON     FAIR      83  79  88 SW7       29.93S
$$





USA.gov is the U.S. government's official web portal to all federal, state and local government web resources and services.